Probability
0 0 0 0 0 0 0 0 0 0 0 0 0 0 0 0 0 0 0 0 0 0 0 0 0 0 0 0 0 0 0 0 0 0 0 0 0 0
0 0 0 0 0 0 0 0 0 0 0 0 0 0 0 0 0 0 0 0 0 0 0 0 0 0 0 0 0 0 0 0 0 0 0 0 0 0
0 0 0 0 0 0 0 0 0 0 0 0 0 0 0 0 0 0 0 0 0 0 0 0 0 0 0 0 0 0 0 0 0 0 0 0 0 0
0 0 0 0 0 0 0 0 0 0 0 0 0 0 0 0 0 0 0 0 0 0 0 0 0 0 0 0 0 0 0 0 0 0 0 0 0 0
0 0 0 0 0 0 0 0 0 0 0 0 0 0 0 0 0 0 0 0 0 0 0 0 0 0 0 0 0 0 0 0 0 0 0 0 0 0
0 0 0 0 0 0 0 0 0 0 0 0 0 0 0 0 0 0 0 0 0 0 0 0 0 0 0 0 0 0 0 0 0 0 0 0 0 0
0 0 0 0 0 0 0 0 0 0 0 0 0 0 0 0 0 0 0 0 0 0 0 0 0 0 0 0 0 0 0 0 0 0 0 0 0 0
0 0 0 0 0 0 0 0 0 0 0 0 0 0 0 0 0 0 0 0 0 0 0 0 0 0 0 0 0 0 0 0 0 0 0 0 0 0
0 0 0 0 0 0 0 0 0 0 0 0 0 0 0 0 0 0 0 0 0 0 0 0 0 0 0 0 0 0 0 0 0 0 0 0 0 0
0 0 0 0 0 0 0 0 0 0 0 0 0 0 0 0 0 0 0 0 0 0 0 0 0 0 0 0 0 0 0 0 0 0 0 0 0 0
0 0 0 0 0 0 0 0 0 0 0 0 0 0 0 0 0 0 0 0 0 0 0 0 0 0 0 0 0 0 0 0 0 0 0 0 0 0
0 0 0 0 0 0 0 0 0 0 0 0 0 0 0 0 0 0 0 0 0 0 0 0 0 0 0 0 0 0 0 0 0 0 0 0 0 0
0 0 0 0 0 0 0 0 0 0 0 0 0 0 0 0 0 0 0 0 0 0 0 0 0 0 0 0 0 0 0 0 0 0 0 0 0 0
0 0 0 0 0 0 0 0 0 0 0 0 0 0 0 0 0 0 0 0 0 0 0 0 0 0 0 0 0 0 0 0 0 0 0 0 0 0
0 0 0 0 0 0 0 0 0 0 0 0 0 0 0 0 0 0 0 0 0 0 0 0 0 0 0 0 0 0 0 0 0 0 0 0 0 0
0 0 0 0 0 0 0 0 0 0 0 0 0 0 0 0 0 0 0 0 0 0 0 0 0 0 0 0 0 0 0 0 0 0 0 0 0 0
0 0 0 0 0 0 0 0 0 0 0 0 0 0 0 0 0 0 0 0 0 0 0 0 0 0 0 0 0 0 0 0 0 0 0 0 0 0
0 0 0 0 0 0 0 0 0 0 0 0 0 0 0 0 0 0 0 0 0 0 0 0 0 0 0 0 0 0 0 0 0 0 0 0 0 0
0 0 0 0 0 0 0 0 0 0 0 0 0 0 0 0 0 0 0 0 0 0 0 0 0 0 0 0 0 0 0 0 0 0 0 0 0 0
0 0 0 0 0 0 0 0 0 0 0 0 0 0 0 0 0 0 0 0 0 0 0 0 0 0 0 0 0 0 0 0 0 0 0 0 0 0
0 0 0 0 0 0 0 0 0 0 0 0 0 0 0 0 0 0 0 0 0 0 0 0 0 0 0 0 0 0 0 0 0 0 0 0 0 0
0 0 0 0 0 0 0 0 0 0 0 0 0 0 0 0 0 0 0 0 0 0 0 0 0 0 0 0 0 0 0 0 0 0 0 0 0 0
0 0 0 0 0 0 0 0 0 0 0 0 0 0 0 0 0 0 0 0 0 0 0 0 0 0 0 0 0 0 0 0 0 0 0 0 0 0
Height
5716 5721 5726 5731 5735 5739 5743 5748 5752 5756 5760 5764 5767 5771 5774 5777 5780 5782 5783 5785 5786 5788 5788 5789 5789 5789 5789 5789 5788 5788 5787 5786 5784 5783 5782 5780 5778 5776
5704 5709 5714 5719 5724 5728 5732 5737 5741 5745 5750 5754 5757 5761 5764 5767 5770 5772 5774 5776 5777 5779 5780 5780 5781 5781 5781 5781 5780 5780 5779 5777 5776 5775 5773 5772 5770 5768
5691 5696 5702 5707 5712 5717 5721 5725 5730 5734 5739 5743 5747 5750 5754 5757 5760 5762 5764 5766 5768 5769 5771 5771 5772 5772 5772 5772 5771 5771 5770 5769 5768 5766 5764 5763 5761 5759
5679 5684 5690 5695 5700 5705 5710 5714 5719 5723 5727 5731 5736 5739 5743 5746 5749 5752 5754 5756 5758 5759 5761 5762 5762 5763 5762 5762 5762 5761 5760 5760 5758 5757 5756 5754 5752 5749
5666 5672 5677 5682 5687 5692 5697 5702 5707 5711 5715 5720 5724 5728 5732 5735 5738 5741 5743 5745 5747 5749 5750 5751 5752 5752 5753 5752 5752 5751 5751 5750 5749 5747 5746 5744 5741 5739
5653 5659 5664 5670 5675 5680 5685 5690 5695 5699 5703 5708 5712 5717 5720 5723 5726 5729 5732 5734 5737 5738 5739 5740 5741 5742 5742 5742 5742 5741 5740 5739 5738 5737 5735 5733 5731 5729
5640 5646 5651 5657 5663 5667 5673 5678 5682 5687 5691 5695 5700 5704 5708 5712 5715 5718 5720 5723 5725 5726 5728 5729 5730 5731 5731 5731 5730 5730 5729 5728 5727 5726 5724 5722 5720 5718
5627 5633 5639 5644 5650 5655 5660 5665 5670 5675 5679 5683 5688 5692 5696 5700 5703 5705 5708 5711 5714 5716 5716 5718 5718 5719 5719 5719 5719 5718 5718 5716 5715 5714 5712 5710 5708 5706
5614 5619 5625 5631 5636 5641 5646 5651 5657 5662 5667 5671 5675 5679 5683 5687 5690 5693 5696 5698 5701 5703 5704 5705 5706 5707 5707 5707 5706 5706 5705 5704 5703 5701 5700 5697 5695 5693
5600 5606 5612 5617 5622 5627 5632 5638 5643 5648 5654 5658 5663 5667 5670 5673 5676 5680 5682 5685 5687 5689 5691 5693 5694 5694 5694 5694 5693 5692 5692 5691 5689 5688 5686 5684 5682 5679
5585 5591 5597 5603 5609 5614 5619 5624 5630 5634 5639 5644 5648 5652 5656 5659 5662 5665 5668 5671 5674 5676 5678 5679 5681 5681 5681 5680 5679 5678 5678 5677 5675 5674 5672 5670 5668 5665
5570 5576 5583 5589 5594 5598 5604 5609 5615 5620 5625 5629 5634 5638 5641 5645 5648 5651 5654 5657 5659 5662 5664 5665 5666 5666 5666 5666 5665 5664 5663 5662 5661 5659 5658 5656 5653 5650
5555 5561 5567 5573 5579 5584 5589 5595 5600 5606 5610 5615 5619 5623 5627 5630 5634 5637 5640 5643 5645 5648 5650 5650 5651 5651 5651 5652 5651 5650 5649 5647 5646 5645 5643 5641 5639 5636
5541 5547 5552 5558 5563 5569 5574 5580 5585 5590 5595 5600 5604 5608 5612 5616 5620 5623 5625 5628 5630 5633 5634 5635 5636 5636 5636 5636 5636 5635 5634 5633 5631 5630 5628 5626 5623 5621
5525 5532 5537 5543 5548 5554 5559 5565 5569 5574 5579 5584 5589 5593 5597 5601 5605 5608 5610 5612 5615 5617 5618 5619 5620 5621 5621 5621 5621 5620 5619 5618 5616 5615 5613 5611 5609 5606
5511 5516 5522 5527 5532 5538 5544 5549 5554 5559 5564 5569 5574 5578 5582 5586 5589 5592 5595 5597 5600 5602 5603 5604 5604 5605 5605 5605 5605 5605 5604 5603 5602 5600 5598 5596 5593 5591
5497 5502 5507 5512 5517 5523 5529 5534 5539 5544 5549 5554 5558 5562 5566 5570 5574 5577 5579 5582 5584 5587 5588 5588 5589 5589 5589 5589 5589 5589 5589 5588 5586 5585 5583 5581 5578 5576
5483 5488 5493 5498 5503 5509 5514 5519 5524 5529 5533 5538 5542 5546 5550 5554 5558 5561 5563 5566 5568 5570 5572 5573 5573 5574 5574 5574 5574 5574 5573 5572 5571 5569 5567 5566 5564 5561
5470 5475 5479 5485 5490 5495 5500 5504 5509 5514 5518 5523 5527 5531 5534 5538 5541 5544 5547 5549 5552 5554 5556 5557 5557 5558 5558 5559 5559 5557 5557 5556 5555 5554 5552 5550 5549 5547
5457 5462 5466 5471 5475 5480 5485 5490 5494 5499 5503 5507 5511 5515 5518 5522 5525 5528 5531 5533 5536 5538 5540 5541 5542 5542 5542 5543 5543 5543 5541 5540 5539 5538 5536 5534 5533 5531
5445 5449 5453 5457 5462 5466 5471 5475 5480 5484 5488 5492 5495 5499 5502 5505 5508 5511 5514 5516 5519 5521 5523 5525 5525 5525 5525 5525 5526 5527 5526 5524 5522 5521 5520 5519 5517 5515
5433 5436 5440 5444 5448 5453 5457 5461 5465 5469 5473 5476 5480 5483 5486 5490 5493 5495 5498 5501 5503 5505 5507 5508 5509 5509 5509 5509 5510 5510 5510 5509 5506 5505 5503 5502 5501 5500
5421 5424 5428 5431 5435 5439 5443 5447 5451 5455 5458 5461 5465 5468 5471 5475 5477 5480 5483 5485 5488 5490 5491 5492 5492 5493 5493 5493 5493 5493 5493 5493 5491 5490 5488 5486 5485 5483
Wind_Speed
52 50 50 48 46 44 43 42 42 42 41 39 38 38 37 36 36 35 35 34 34 33 32 32 32 32 32 32 32 32 31 32 32 32 32 32 33 33
54 53 52 50 48 47 45 44 44 44 43 42 40 40 39 39 38 37 37 37 37 36 35 34 34 34 34 34 34 34 34 33 33 33 33 34 35 35
55 54 54 53 51 50 48 46 45 45 45 44 43 42 41 40 39 38 38 38 38 37 37 36 36 36 35 36 35 35 34 35 34 34 34 35 36 36
55 55 55 55 54 53 51 49 48 47 46 45 44 43 43 42 41 40 40 39 39 38 39 38 38 38 37 36 36 36 36 37 37 37 36 37 38 39
55 55 54 54 54 54 53 51 49 48 48 47 46 45 44 44 43 42 42 42 41 40 40 41 41 40 39 38 38 38 38 38 38 39 39 39 40 40
56 56 55 54 54 54 54 53 52 51 49 48 48 47 46 46 46 44 43 43 43 43 42 42 41 41 41 41 41 41 40 40 40 40 41 42 42 42
55 55 55 54 55 54 54 53 53 52 50 50 50 49 49 48 47 46 45 45 45 44 44 43 42 42 43 43 43 43 43 43 43 43 44 44 44 45
56 54 55 55 55 55 54 54 53 53 51 50 50 51 50 49 49 48 48 47 46 46 45 44 44 44 44 44 44 45 46 46 47 47 47 47 47 48
56 55 55 55 56 56 56 56 55 54 53 51 51 50 50 51 51 50 49 47 47 48 48 47 46 46 46 47 47 47 47 48 49 49 49 49 50 50
58 57 56 55 55 55 56 56 55 55 54 53 52 52 52 52 52 50 50 49 48 48 48 48 48 48 47 48 48 49 49 49 50 50 51 51 52 52
58 58 57 56 56 55 55 55 56 55 54 54 53 53 54 53 51 51 51 51 50 49 49 50 49 50 50 50 50 50 51 51 52 52 52 52 53 54
57 58 58 57 57 57 56 56 56 56 54 54 54 54 53 53 52 51 52 52 52 51 50 50 51 52 52 52 52 52 52 53 53 53 53 53 54 53
57 57 58 58 58 58 58 58 58 58 56 55 54 55 55 54 53 52 53 54 54 53 52 51 51 53 53 53 53 54 54 54 54 54 54 54 54 53
56 56 57 57 57 57 57 59 60 59 58 56 56 55 55 54 54 54 54 55 55 55 54 53 53 53 54 54 54 54 54 55 55 55 55 55 54 54
56 56 56 56 57 57 56 58 59 59 57 57 57 56 56 55 55 54 54 54 55 56 55 54 54 54 54 55 54 54 54 54 54 54 55 55 55 55
54 55 56 57 57 56 56 56 57 58 58 57 57 57 56 56 55 54 54 55 55 56 56 56 55 55 55 55 55 54 54 54 54 54 54 55 55 56
52 53 55 56 56 55 55 55 56 57 57 57 57 57 57 55 55 55 55 55 56 57 57 57 57 56 56 55 55 54 53 53 53 53 54 54 55 54
51 52 53 54 55 55 54 54 55 56 56 57 57 57 57 57 57 58 57 57 56 56 56 56 56 56 56 55 55 55 54 54 54 54 54 54 53 53
48 50 51 52 54 55 55 54 55 55 55 55 56 57 57 58 58 58 58 57 56 56 56 55 55 55 54 54 54 55 55 55 55 55 54 54 53 53
46 48 49 50 52 54 54 53 53 54 54 54 54 55 56 57 58 58 58 57 56 55 55 54 54 54 54 54 55 55 55 56 55 55 54 54 53 53
45 45 46 48 49 50 51 51 51 52 52 53 54 54 55 56 56 56 56 56 55 55 54 53 53 54 55 55 54 54 54 55 55 54 54 53 52 52
42 43 44 46 46 47 48 50 50 50 50 50 51 51 52 53 53 53 53 53 53 53 52 52 52 53 54 54 54 54 54 54 54 54 54 53 53 52
40 42 43 44 46 47 47 49 50 50 50 49 50 50 50 50 50 50 50 50 50 50 50 50 50 51 51 51 52 53 53 53 53 53 53 53 53 52
Wind_Direction
240 241 241 241 243 244 245 246 246 245 245 246 248 250 252 254 255 257 259 261 263 266 268 271 272 274 276 279 281 282 284 286 288 289 290 292 293 294
239 240 241 240 241 243 244 245 246 246 246 246 248 251 252 254 256 257 258 261 264 266 268 270 272 274 276 278 279 280 282 284 286 287 289 290 292 293
239 240 241 241 241 243 244 244 246 247 247 248 249 251 252 254 255 257 258 261 264 266 267 269 271 273 275 277 278 279 281 283 285 286 288 289 291 292
239 240 241 242 242 242 243 245 246 247 248 249 249 250 252 253 255 256 257 260 263 265 266 268 270 272 274 275 276 278 280 282 283 285 287 288 289 290
240 240 241 242 243 243 243 244 246 247 248 249 249 250 252 253 254 256 258 260 262 264 266 268 269 270 273 274 276 277 279 281 283 285 286 288 289 291
241 241 242 242 243 243 244 245 246 247 248 249 249 250 251 253 255 257 259 260 262 264 266 267 268 270 272 274 275 277 278 280 282 284 286 287 289 290
240 241 243 243 244 244 245 246 247 247 248 248 249 251 252 253 255 257 258 260 261 263 265 266 268 270 272 274 275 276 277 279 281 283 284 286 288 289
240 241 243 243 244 245 246 247 247 247 248 249 250 251 253 253 254 257 258 259 261 263 265 267 269 270 273 274 274 276 278 280 281 282 284 285 287 288
241 242 243 244 245 245 246 247 248 248 249 251 252 252 253 254 255 258 259 260 261 263 265 267 269 271 273 275 275 277 279 281 282 282 283 284 285 287
241 242 244 245 246 245 247 247 247 247 250 251 253 253 254 255 257 258 258 259 261 263 265 268 270 271 273 274 275 276 277 279 281 281 282 283 285 286
242 243 243 245 245 246 247 247 247 249 250 251 253 254 254 255 257 258 259 260 262 264 266 267 268 271 273 274 275 276 277 279 281 282 282 284 285 285
242 243 244 245 245 245 246 247 248 249 250 251 252 253 254 255 257 259 259 261 262 264 266 267 269 271 272 274 276 276 278 280 281 283 283 283 284 285
241 243 244 243 243 244 246 247 248 249 249 251 252 253 253 255 257 260 261 262 264 266 266 268 270 271 272 274 275 276 277 279 281 282 282 283 283 283
243 243 243 243 243 245 246 248 249 249 250 251 252 252 254 255 257 259 261 264 265 266 267 269 270 272 273 275 276 277 278 279 280 281 282 282 283 283
244 244 243 243 244 245 246 247 248 248 249 251 251 252 253 255 256 257 260 262 264 265 267 269 270 272 273 274 276 277 278 279 280 281 282 283 284 286
246 245 244 244 245 244 245 246 246 246 248 250 251 251 252 254 255 256 259 261 263 265 267 268 270 272 274 274 275 276 278 278 279 279 281 283 284 286
246 246 246 246 246 244 245 245 245 246 248 249 249 251 252 253 254 256 258 260 262 264 267 268 270 272 273 274 275 276 276 277 278 279 281 282 284 285
247 247 247 246 246 245 245 245 245 246 247 249 250 251 252 253 255 257 258 260 262 264 266 268 269 271 272 273 274 275 275 276 277 279 282 283 283 284
247 247 247 246 245 245 246 247 247 247 247 249 250 251 252 254 255 257 258 260 262 264 266 267 268 269 270 271 272 274 275 277 278 280 281 282 282 282
247 247 246 246 245 246 246 246 247 248 249 250 251 252 254 255 256 257 259 260 262 263 265 265 267 268 269 271 272 274 276 277 279 279 280 280 281 282
246 246 246 245 245 245 246 246 247 249 250 251 252 254 255 256 256 257 258 259 261 262 263 265 266 268 269 270 272 273 275 277 278 278 279 279 280 281
246 246 246 246 246 246 246 246 247 248 250 251 252 254 256 257 258 258 258 259 261 262 264 265 267 268 269 270 271 272 274 275 276 277 278 279 280 281
246 246 246 246 246 246 246 246 247 249 250 251 252 254 255 256 257 258 259 260 262 263 265 266 267 268 269 270 271 273 274 275 276 277 278 279 281 282